Regional Weather Roundup
Issued by NWS

Home | Current Version | Previous Version | Text Only | Print | Product List | Glossary Off
Versions: 1 2 3 4 5 6 7 8 9 10 11 12 13 14 15 16 17 18 19 20 21 22 23 24 25 26 27 28 29 30 31 32 33 34 35 36 37 38 39 40 41 42 43 44 45 46 47 48 49 50

000
ASUS43 KBIS 240201
RWRND

NORTH DAKOTA REGIONAL WEATHER ROUNDUP
NATIONAL WEATHER SERVICE BISMARCK ND
900 PM CDT SAT MAY 23 2015

NOTE: "FAIR" INDICATES FEW OR NO CLOUDS BELOW 12,000 FEET WITH NO
SIGNIFICANT WEATHER AND/OR OBSTRUCTIONS TO VISIBILITY.


NDZ001>003-009>011-017-240300-
NORTHWEST NORTH DAKOTA

CITY           SKY/WX    TMP DP  RH WIND       PRES   REMARKS
WILLISTON      CLOUDY    68  39  34 SE7       30.08S
MINOT          MOCLDY    67  43  41 S12       30.07R
MINOT AFB      MOCLDY    67  44  42 S7        30.06R
$$

NDZ018>021-031>035-040>046-240300-
SOUTHWEST NORTH DAKOTA

CITY           SKY/WX    TMP DP  RH WIND       PRES   REMARKS
BISMARCK       CLOUDY    60  49  66 SE9       30.10S
DICKINSON      CLOUDY    56  46  69 E7        30.07S
GARRISON         N/A     63  47  55 CALM      30.09S
HETTINGER ARPT CLOUDY    57  47  69 E7        30.09R
$$

NDZ004>008-012>016-024-026-027-054-240300-
NORTHEAST NORTH DAKOTA

CITY           SKY/WX    TMP DP  RH WIND       PRES   REMARKS
GRAND FORKS    PTCLDY    65  46  50 S8        30.08S
GRND FRKS AFB  PTCLDY    64  45  50 S7        30.09R
DEVILS LAKE    MOCLDY    66  43  42 S8        30.09R
$$

NDZ022-023-025-028>030-036>039-047>053-240300-
SOUTHEAST NORTH DAKOTA

CITY           SKY/WX    TMP DP  RH WIND       PRES   REMARKS
FARGO          CLEAR     65  46  50 SE6       30.11R
JAMESTOWN      CLOUDY    63  49  60 S7        30.10S
$$




USA.gov is the U.S. government's official web portal to all federal, state and local government web resources and services.